Flag for Micronesia Weather past 2 weeks in Weno, Truk, Micronesia

Now
81 °F

More clouds than sun.


Feels Like: 87 °F
Forecast: 80 / 86 °F
Wind: 17 mph from Northwest

Location: Truk Intl / Moen Island

Current Time: Sep 3, 2015 at 3:12:17 PM

Latest Report: Sep 3, 2015 at 1:50 PM


Visibility: 15 mi

Pressure: 29.77 "Hg

Humidity: 84%

Dew point: 75 °F

Location of WenoLocation

Historic Weather in Weno — Graph

°F

Weno temperature yesterday

Maximum temperature yesterday: 87 °F (at 10:50 AM)
Minimum temperature yesterday: 79 °F (at 8:52 PM)
Average temperature yesterday: 83 °F

Past Weeks' High & Low Weather Summary

 TemperatureHumidityPressure
High91 °F (Aug 20, 12:50 PM)100% (Sep 3, 8:22 AM)30.02 "Hg (Sep 3, 8:22 AM)
Low74 °F (Sep 3, 8:52 AM)69% (Aug 21, 3:50 PM)29.74 "Hg (Aug 27, 2:50 PM)
Average82 °F86%29.85 "Hg
* Reported Aug 19 12:52 PM — Sep 3 12:50 PM, Weno, Weather by CustomWeather, © 2015

Note: Actual official high and low records may vary slightly from our data, if they occured in-between our weather recording intervals... More about our weather records

Advertising

Weno weather history for previous 24 hours

 ConditionsComfort  
Time TempWeatherWind HumidityBarometerVisibility
12:50 PM
Thu, Sep 3
79 °FMore clouds than sun.14 mph89%29.83 "Hg15 mi
11:50 AM78 °FLight rain. More clouds than sun.14 mph92%29.88 "Hg14 mi
10:50 AM76 °FSprinkles. More clouds than sun.9 mph93%29.94 "Hg14 mi
9:50 AM75 °FSprinkles. More clouds than sun.6 mph97%29.97 "Hg10 mi
8:52 AM74 °FRain showers. Mostly cloudy.5 mph97%29.98 "Hg3 mi
8:22 AM75 °FRain showers. Mostly cloudy.9 mph100%29.97 "Hg2 mi
7:50 AM76 °FSprinkles. Mostly cloudy.5 mph98%29.97 "Hg6 mi
6:51 AM75 °FSprinkles. Mostly cloudy.3 mph98%29.95 "Hg8 mi
5:54 AM75 °FRain showers. More clouds than sun.8 mph98%29.93 "Hg3 mi
4:50 AM76 °FSprinkles. Mostly cloudy.5 mph98%29.90 "Hg10 mi
3:54 AM76 °FRain showers. Mostly cloudy.5 mph98%29.86 "Hg4 mi
2:55 AM77 °FMostly cloudy.6 mph98%29.85 "Hg10 mi
1:52 AM77 °FMostly cloudy.3 mph94%29.85 "Hg13 mi
12:54 AM80 °FSprinkles. Overcast.3 mph93%29.86 "Hg12 mi
11:56 PM
Wed, Sep 2
79 °FSprinkles. Overcast.6 mph94%29.87 "Hg13 mi
10:57 PM79 °FSprinkles. Overcast.8 mph93%29.87 "Hg13 mi
9:55 PM82 °FMostly cloudy.8 mph90%29.88 "Hg15 mi
8:52 PM79 °FSprinkles. Overcast.7 mph92%29.88 "Hg14 mi
7:50 PM80 °FSprinkles. Overcast.14 mph92%29.86 "Hg14 mi
6:50 PM83 °FMostly cloudy.9 mph87%29.86 "Hg15 mi
5:54 PM82 °FMostly cloudy.10 mph88%29.84 "Hg15 mi
4:52 PM82 °FScattered showers. Cloudy.14 mph88%29.83 "Hg15 mi
3:50 PM84 °FCloudy.9 mph86%29.82 "Hg15 mi
Weather by CustomWeather, © 2015

See weather overviewHow to use our weather pages